Location: Colle Pacifico
(43.5333°N, 13.3167°E)
Time: 20:38:44
(UTC+00:00)

CZ-4C R/B - Pass Details

Date: 07 June 2020
Orbit: 463 x 637 km, 98.0° (Epoch: 11 July)

Event Time Altitude Azimuth Distance (km) Brightness Sun altitude
Exits shadow 00:37:54 39° 154° (SSE) 944 4.1 -20.4°
Maximum altitude 00:39:29 78° 75° (ENE) 653 3.6 -20.3°
Drops below altitude 10° 00:43:56 10° 350° (N) 2,035 7.0 -19.9°
Sets 00:46:10 0° 349° (N) 2,946 7.9 -19.8°
